Regional Weather Roundup
Issued by NWS

Home | Current Version | Previous Version | Text Only | Print | Product List | Glossary On
Versions: 1 2 3 4 5 6 7 8 9 10 11 12 13 14 15 16 17 18 19 20 21 22 23 24 25 26 27 28 29 30 31 32 33 34 35 36 37 38 39 40 41 42 43 44 45 46 47 48 49 50
000
ASUS44 KMEG 260310
RWRTN
TENNESSEE HOURLY STATE WEATHER ROUNDUP
NATIONAL WEATHER SERVICE MEMPHIS TN
900 PM CST SAT FEB 25 2017

TNZ002-004-019-021-049-052-054-088>092-260400-
WEST TENNESSEE

CITY           SKY/WX    TMP DP  RH WIND       PRES   REMARKS
MEMPHIS INTL   CLEAR     38  23  55 S5        30.15S WCI  34
NWS MEMPHIS      N/A     35 N/A N/A MISG        N/A
JACKSON        CLEAR     30  24  78 S3        30.16R
UNION CITY     CLEAR     32  18  55 CALM      30.13S
PARIS          CLEAR     28  19  69 CALM      30.14S
HUNTINGDON     CLEAR     30  25  80 CALM      30.14S
$$

TNZ008-025-027-028-033-062-065-066-260400-
NORTH MIDDLE TENNESSEE

CITY           SKY/WX    TMP DP  RH WIND       PRES   REMARKS
NASHVILLE      CLEAR     38  19  46 N6        30.15R WCI  33
PORTLAND       CLEAR     34  21  60 NW3       30.13R
CLARKSVILLE    CLEAR     36  18  48 W3        30.14R
SMYRNA         CLEAR     36  22  56 NW3       30.15R
COOKEVILLE     PTCLDY    30  25  80 CALM      30.10R
GALLATIN       CLEAR     36  21  55 CALM      30.16R
CROSSVILLE     CLEAR     32  18  56 NW5       30.07R WCI  27
$$

TNZ061-075-076-078-094-096-097-260400-
SOUTH MIDDLE TENNESSEE

CITY           SKY/WX    TMP DP  RH WIND       PRES   REMARKS
FAYETTEVILLE   CLEAR     39  21  48 NW8       30.12R WCI  34
TULLAHOMA      CLEAR     36  18  48 NW5       30.11R WCI  32
MCMINNVILLE    CLEAR     34  21  60 N3        30.11R
COLUMBIA       CLEAR     37  19  48 NW3       30.13R
SHELBYVILLE    CLEAR     37  23  56 NW6       30.14R WCI  33
$$

TNZ017-018-042-046-047-260400-
NORTHEAST TENNESSEE

CITY           SKY/WX    TMP DP  RH WIND       PRES   REMARKS
TRI CITIES     CLEAR     37  18  46 NW13      30.03R WCI  29
ELIZABETHTON   CLEAR     37  19  48 VRB7      30.01R WCI  32
$$

TNZ012-013-036-069-073-074-260400-
CENTRAL EAST TENNESSEE

CITY           SKY/WX    TMP DP  RH WIND       PRES   REMARKS
KNOXVILLE      CLEAR     41  18  39 W9        30.08R
OAK RIDGE      CLEAR     40  18  41 CALM      30.11R
GATLINBURG     CLEAR     37  19  48 NW6       30.07R WCI  33
MORRISTOWN     CLEAR     37  21  52 N13       30.05R WCI  29
JACKSBORO      CLEAR     36  19  51 CALM      30.12R
$$

TNZ083-085-099-260400-
SOUTHEAST TENNESSEE

CITY           SKY/WX    TMP DP  RH WIND       PRES   REMARKS
CHATTANOOGA    CLEAR     42  20  41 N7        30.10R
$$

SKY/WX REPORTED AS FAIR MEANS FEW OR NO CLOUDS BELOW
12 THOUSAND FEET.




USA.gov is the U.S. government's official web portal to all federal, state and local government web resources and services.